Portland Troutdale, OR

11:17 AM PDT on August 21, 2017 (GMT -0700)
Portland-Troutdale

Weather History for KTTD - March, 2013

Change the Weather History Date:

Sunday, March 10, 2013

  Actual Average Record
Temperature  
Mean Temperature 42 °F 46 °F  
Max Temperature 51 °F 55 °F 75 °F (1965)
Min Temperature 33 °F 38 °F 28 °F (1956)
Degree Days  
Heating Degree Days 23 19  
Month to date heating degree days 194 195  
Cooling Degree Days 0 0  
Month to date cooling degree days 0 0  
Moisture  
Dew Point 38 °F    
Average Humidity 77    
Maximum Humidity 93    
Minimum Humidity 61    
Precipitation  
Precipitation T in 0.15 in 1.26 in (1983)
Month to date precipitation 0.59 1.51  
Year to date precipitation 5.34 12.78  
Snow  
Snow 0.00 in - - ()
Month to date snowfall 0.0  
Snow Depth 0.00 in    
Sea Level Pressure  
Sea Level Pressure 30.46 in    
Wind  
Wind Speed 1 mph (East)    
Max Wind Speed 7 mph    
Max Gust Speed 7 mph    
Visibility 10 miles    
Events Rain    
T = Trace of Precipitation, MM = Missing Value Source: NWS Daily Summary

Daily Weather History Graph

Daily Weather History Graph

Search for Another Location

Airport or City:

Trip Planner

Search our weather history database for the weather conditions in past years. The results will help you decide how hot, cold, wet, or windy it might be!

Date:

Astronomy

Mar. 10, 2013 Rise Set
Actual Time 7:30 AM PDT 7:09 PM PDT
Civil Twilight 7:01 AM PDT 7:38 PM PDT
Nautical Twilight 6:27 AM PDT 8:13 PM PDT
Astronomical Twilight 5:52 AM PDT 8:48 PM PDT
Moon 6:35 AM PDT (3/10) 6:22 PM PDT (3/10)
Length of Visible Light 12h 37m
Length of Day
11h 38m
Waning Crescent, 1% of the Moon is Illuminated
Mar 10
Waning Crescent
Mar 11
New
Mar 19
First Quarter
Mar 27
Full
Apr 2
Last Quarter

Hourly Weather History & Observations

Time (PDT) Temp. Windchill Dew Point Humidity Pressure Visibility Wind Dir Wind Speed Gust Speed Precip Events Conditions
12:53 AM 36.0 °F - 32.0 °F 86% 30.49 in 10.0 mi Calm Calm - N/A   Clear
1:53 AM 35.1 °F 30.1 °F 30.9 °F 85% 30.50 in 10.0 mi East 5.8 mph - N/A   Clear
3:53 AM 36.0 °F 33.3 °F 32.0 °F 86% 30.49 in 10.0 mi NE 3.5 mph - N/A   Clear
5:53 AM 35.1 °F 31.0 °F 32.0 °F 89% 30.50 in 10.0 mi ESE 4.6 mph - N/A   Mostly Cloudy
6:53 AM 37.0 °F - 32.0 °F 82% 30.50 in 10.0 mi Calm Calm - N/A   Scattered Clouds
7:53 AM 36.0 °F - 33.1 °F 89% 30.49 in 10.0 mi Calm Calm - N/A   Mostly Cloudy
8:53 AM 39.9 °F - 34.0 °F 79% 30.49 in 10.0 mi Calm Calm - N/A   Overcast
9:53 AM 43.0 °F - 35.1 °F 74% 30.49 in 10.0 mi Calm Calm - N/A   Overcast
10:53 AM 46.0 °F - 35.1 °F 66% 30.48 in 10.0 mi Calm Calm - N/A   Overcast
11:53 AM 46.9 °F - 35.1 °F 63% 30.47 in 10.0 mi Calm Calm - N/A   Overcast
12:53 PM 48.0 °F - 36.0 °F 63% 30.47 in 10.0 mi Calm Calm - 0.00 in   Overcast
1:53 PM 48.0 °F - 39.0 °F 71% 30.45 in 10.0 mi Calm Calm - 0.00 in Rain Light Rain
2:53 PM 50.0 °F - 39.9 °F 68% 30.44 in 10.0 mi Calm Calm - 0.00 in   Overcast
3:53 PM 51.1 °F - 39.0 °F 63% 30.44 in 10.0 mi Calm Calm - N/A   Overcast
4:53 PM 51.1 °F - 39.9 °F 66% 30.44 in 10.0 mi Calm Calm - N/A   Overcast
5:53 PM 50.0 °F - 41.0 °F 71% 30.43 in 10.0 mi Calm Calm - 0.00 in   Overcast
6:53 PM 48.0 °F - 42.1 °F 80% 30.43 in 10.0 mi Calm Calm - 0.00 in Rain Light Rain
7:53 PM 48.0 °F - 42.1 °F 80% 30.43 in 10.0 mi Calm Calm - 0.00 in   Overcast
8:53 PM 46.9 °F - 42.1 °F 83% 30.43 in 10.0 mi Calm Calm - N/A   Overcast
9:28 PM 48.2 °F - 42.8 °F 82% 30.43 in 10.0 mi Calm Calm - N/A   Overcast
9:53 PM 46.9 °F - 44.1 °F 90% 30.43 in 9.0 mi Calm Calm - N/A   Overcast
10:53 PM 46.9 °F - 44.1 °F 90% 30.43 in 10.0 mi Calm Calm - N/A   Overcast
11:53 PM 46.0 °F - 43.0 °F 89% 30.43 in 10.0 mi Calm Calm - N/A   Overcast
12:53 AM 46.9 °F - 43.0 °F 86% 30.42 in 9.0 mi Calm Calm - N/A   Overcast